Flag for Norway Weather past 2 weeks in Sandefjord, Norway

Now
54 °F

Clear.


Feels Like: 52 °F
Forecast: 47 / 53 °F
Wind: 6 mph from West

Location: Torp

Current Time: Oct 20, 2014 at 8:33:59 PM

Latest Report: Oct 20, 2014 at 7:50 PM


Visibility: 10 mi

Pressure: 29.47 "Hg

Humidity: 82%

Dew point: 48 °F

Location of SandefjordLocation

Historic Weather in Sandefjord — Graph

°F

Sandefjord temperature yesterday

Maximum temperature yesterday: 57 °F (at 2:20 PM)
Minimum temperature yesterday: 54 °F (at 5:20 AM)
Average temperature yesterday: 55 °F

Past Weeks' High & Low Weather Summary

 TemperatureHumidityPressure
High59 °F (Oct 20, 1:20 PM)100% (Oct 7, 10:50 PM)30.33 "Hg (Oct 7, 10:50 PM)
Low32 °F (Oct 16, 8:50 PM)58% (Oct 6, 4:20 PM)29.30 "Hg (Oct 20, 3:50 AM)
Average48 °F90%29.81 "Hg
* Reported Oct 5 7:20 PM — Oct 20 7:20 PM, Sandefjord, Weather by CustomWeather, © 2014

Note: Actual official high and low records may vary slightly from our data, if they occured in-between our weather recording intervals... More about our weather records

Advertising

Sandefjord weather history for previous 24 hours

 ConditionsComfort  
Time TempWeatherWind HumidityBarometerVisibility
7:20 PM
Oct 20
52 °FClear.7 mph88%29.47 "Hg10 mi
6:50 PM54 °FScattered clouds.6 mph82%29.47 "HgN/A
6:20 PM52 °FPassing clouds.5 mph88%29.47 "HgN/A
5:50 PM55 °FPassing clouds.5 mph77%29.47 "HgN/A
5:20 PM55 °FSunny.2 mph77%29.47 "Hg10 mi
4:50 PM57 °FSunny.5 mph72%29.47 "Hg10 mi
4:20 PM59 °FSunny.7 mph63%29.45 "Hg10 mi
3:50 PM59 °FSunny.8 mph68%29.45 "Hg10 mi
3:24 PM59 °FSunny.7 mph63%29.45 "Hg10 mi
2:50 PM59 °FPassing clouds.9 mph63%29.45 "HgN/A
2:20 PM59 °FPassing clouds.8 mph63%29.45 "HgN/A
1:50 PM59 °FSunny.8 mph63%29.42 "Hg10 mi
1:20 PM59 °FSunny.9 mph63%29.42 "Hg10 mi
12:50 PM57 °FSunny.13 mph67%29.42 "Hg10 mi
12:20 PM57 °FSunny.9 mph72%29.42 "Hg10 mi
11:50 AM55 °FSunny.8 mph72%29.42 "Hg10 mi
11:20 AM54 °FPassing clouds.7 mph77%29.39 "HgN/A
10:50 AM54 °FSunny.9 mph77%29.39 "Hg10 mi
10:20 AM54 °FSunny.8 mph77%29.39 "Hg10 mi
9:50 AM52 °FSunny.6 mph82%29.36 "Hg10 mi
9:20 AM52 °FSunny.6 mph82%29.36 "Hg10 mi
8:50 AM52 °FClear.7 mph88%29.36 "Hg10 mi
8:20 AM52 °FClear.8 mph88%29.36 "Hg10 mi
7:50 AM52 °FClear.6 mph88%29.33 "Hg10 mi
7:20 AM52 °FPassing clouds.8 mph88%29.33 "HgN/A
6:50 AM52 °FPassing clouds.5 mph94%29.33 "HgN/A
5:20 AM52 °FPassing clouds.6 mph94%29.33 "HgN/A
4:50 AM54 °FPartly cloudy.8 mph88%29.30 "HgN/A
4:20 AM54 °FMostly cloudy.9 mph94%29.30 "HgN/A
3:50 AM54 °FMostly cloudy.14 mph94%29.30 "HgN/A
3:20 AM54 °FPartly cloudy.14 mph94%29.33 "HgN/A
2:50 AM54 °FPassing clouds.14 mph94%29.33 "HgN/A
2:20 AM54 °FPartly cloudy.14 mph94%29.33 "HgN/A
1:50 AM54 °FPassing clouds.14 mph94%29.33 "HgN/A
1:20 AM54 °FPassing clouds.14 mph94%29.33 "Hg6 mi
12:50 AM54 °FPartly cloudy.13 mph94%29.36 "Hg6 mi
12:20 AM54 °FPassing clouds.13 mph94%29.36 "Hg6 mi
11:50 PM
Oct 19
54 °FPassing clouds.13 mph94%29.36 "Hg5 mi
11:20 PM54 °FScattered showers. Passing clouds.14 mph94%29.36 "Hg5 mi
10:50 PM54 °FPartly cloudy.15 mph94%29.39 "Hg4 mi
10:20 PM54 °FPartly cloudy.14 mph94%29.39 "Hg4 mi
9:50 PM54 °FSprinkles. Passing clouds.14 mph94%29.39 "Hg4 mi
9:20 PM54 °FPassing clouds.14 mph94%29.39 "Hg5 mi
8:50 PM54 °FLow clouds.15 mph94%29.42 "Hg5 mi
8:20 PM54 °FMostly cloudy.18 mph100%29.42 "Hg4 mi
Weather by CustomWeather, © 2014

See weather overviewHow to use our weather pages